Location: 81360 Arifat, France
(43.7204°N, 2.3408°E)
Time: 08:46:11
(UTC+02:00)

Envisat - Pass Details

Date: 08 October 2021
Orbit: 764 x 766 km, 98.2° (Epoch: 23 October)

Event Time Altitude Azimuth Distance (km) Brightness Sun altitude
Rises 06:13:50 0° 23° (NNE) 3,239 6.7 -19.3°
Reaches altitude 10° 06:16:24 10° 33° (NNE) 2,308 6.1 -18.8°
Maximum altitude 06:20:53 31° 95° (E) 1,327 4.9 -18.0°
Drops below altitude 10° 06:25:20 10° 157° (SSE) 2,292 5.6 -17.2°
Sets 06:27:52 0° 168° (SSE) 3,214 6.3 -16.8°
